EHI
0 0 0 0 0 0 0 0 0 0 0 0 0 0 0 0 0 0 0 0 0 0 0 0 0 0 0 0 0 0 0 0 0 0 0 0 0 0
0 0 0 0 0 0 0 0 0 0 0 0 0 0 0 0 0 0 0 0 0 0 0 0 0 0 0 0 0 0 0 0 0 0 0 0 0 0
0 0 0 0 0 0 0 0 0 0 0 0 0 0 0 0 0 0 0 0 0 0 0 0 0 0 0 0 0 0 0 0 0 0 0 0 0 0
0 0 0 0 0 0 0 0 0 0 0 0 0 0 0 0 0 0 0 0 0 0 0 0 0 0 0 0 0 0 0 0 0 0 0 0 0 0
0 0 0 0 0 0 0 0 0 0 0 0 0 0 0 0 0 0 0 0 0 0 0 0 0 0 0 0 0 0 0 0 0 0 0 0 0 0
0 0 0 0 0 0 0 0 0 0 0 0 0 0 0 0 0 0 0 0 0 0 0 0 0 0 0 0 0 0 0 0 0 0 0 0 0 0
0 0 0 0 0 0 0 0 0 0 0 0 0 0 0 0 0 0 0 0 0 0 0 0 0 0 0 0 0 0 0 0 0 0 0 0 0 0
0 0 0 0 0 0 0 0 0 0 0 0 0 0 0 0 0 0 0 0 0 0 0 0 0 0 0 0 0 0 0 0 0 0 0 0 0 0
0 0 0 0 0 0 0 0 0 0 0 0 0 0 0 0 0 0 0 0 0 0 0 0 0 0 0 0 0 0 0 0 0 0 0 0 0 0
0 0 0 0 0 0 0 0 0 0 0 0 0 0 0 0 0 0 0 0 0 0 0 0 0 0 0 0 0 0 0 0 0 0 0 0 0 0
0 0 0 0 0 0 0 0 0 0 0 0 0 0 0 0 0 0 0 0 0 0 0 0 0 0 0 0 0 0 0 0 0 0 0 0 0 0
0 0 0 0 0 0 0 0 0 0 0 0 0 0 0 0 0 0 0 0 0 0 0 0 0 0 0 0 0 0 0 0 0 0 0 0 0 0
0 0 0 0 0 0 0 0 0 0 0 0 0 0 0 0 0 0 0 0 0 0 0 0 0 0 0 0 0 0 0 0 0 0 0 0 0 0
0 0 0 0 0 0 0 0 0 0 0 0 0 0 0 0 0 0 0 0 0 0 0 0 0 0 0 0 0 0 0 0 0 0 0 0 0 0
0 0 0 0 0 0 0 0 0 0 0 0 0 0 0 0 0 0 0 0 0 0 0 0 0 0 0 0 0 0 0 0 0 0 0 0 0 0
0 0 0 0 0 0 0 0 0 0 0 0 0 0 0 0 0 0 0 0 0 0 0 0 0 0 0 0 0 0 0 0 0 0 0 0 0 0
0 0 0 0 0 0 0 0 0 0 0 0 0 0 0 0 0 0 0 0 0 0 0 0 0 0 0 0 0 0 0 0 0 0 0 0 0 0
0 0 0 0 0 0 0 0 0 0 0 0 0 0 0 0 0 0 0 0 0 0 0 0 0 0 0 0 0 0 0 0 0 0 0 0 0 0
0 0 0 0 0 0 0 0 0 0 0 0 0 0 0 0 0 0 0 0 0 0 0 0 0 0 0 0 0 0 0 0 0 0 0 0 0 0
0 0 0 0 0 0 0 0 0 0 0 0 0 0 0 0 0 0 0 0 0 0 0 0 0 0 0 0 0 0 0 0 0 0 0 0 0 0
0 0 0 0 0 0 0 0 0 0 0 0 0 0 0 0 0 0 0 0 0 0 0 0 0 0 0 0 0 0 0 0 0 0 0 0 0 0
0 0 0 0 0 0 0 0 0 0 0 0 0 0 0 0 0 0 0 0 0 0 0 0 0 0 0 0 0 0 0 0 0 0 0 0 0 0
0 0 0 0 0 0 0 0 0 0 0 0 0 0 0 0 0 0 0 0 0 0 0 0 0 0 0 0 0 0 0 0 0 0 0 0 0 0
Wind_Speed
3 3 2 2 2 3 3 3 3 4 4 3 3 3 3 3 4 4 4 5 6 6 5 6 6 6 7 7 7 7 7 8 7 8 8 9 9 11
2 2 2 2 2 2 2 3 3 4 4 3 3 4 4 4 4 4 4 6 6 6 6 6 6 7 8 8 8 8 8 9 9 9 8 9 9 9
2 2 3 3 2 2 2 2 3 3 5 4 3 3 4 4 4 3 3 4 4 6 6 6 6 7 7 7 8 9 9 9 9 9 10 10 10 9
3 3 4 3 3 3 2 3 3 4 4 5 4 3 4 4 4 4 4 3 4 5 6 6 6 7 6 6 6 8 8 9 9 9 9 9 10 9
3 3 4 3 4 3 3 3 3 3 3 4 4 3 3 3 3 3 4 3 4 4 5 6 6 6 6 6 6 6 6 7 8 8 8 8 9 9
3 4 4 4 5 5 4 4 3 3 3 3 4 3 3 3 2 3 3 3 3 3 4 4 5 6 6 6 6 6 6 6 6 7 7 7 8 8
4 4 5 5 6 5 4 4 3 3 3 3 3 3 3 3 3 2 3 3 3 3 3 3 3 3 4 5 6 6 6 6 7 7 8 8 8 8
4 5 5 5 6 6 6 6 5 4 4 3 3 4 5 4 3 2 2 2 3 2 2 3 2 4 4 4 5 6 7 7 7 8 8 8 8 8
4 4 4 5 5 4 5 5 5 6 7 5 5 6 5 4 3 4 4 4 4 3 2 4 3 4 4 4 7 8 8 8 8 8 9 9 9 9
4 4 4 5 5 4 4 4 5 5 5 5 6 7 6 5 5 5 4 4 5 4 4 4 3 4 4 4 6 8 9 9 9 9 10 10 10 10
4 4 4 4 6 5 3 4 6 6 5 6 7 8 8 8 6 3 3 3 4 3 3 4 3 3 3 4 4 7 8 9 9 10 10 10 10 9
4 4 5 5 6 5 3 4 5 6 5 6 5 5 5 6 7 6 5 4 3 3 3 4 3 2 3 3 3 3 4 7 9 10 10 10 10 6
4 4 5 7 7 6 5 4 7 6 5 5 5 5 4 3 3 4 5 5 5 5 3 4 3 3 3 3 2 3 4 3 4 5 8 10 10 9
4 4 5 8 8 8 5 6 7 5 3 3 4 4 4 5 4 4 5 6 7 8 6 4 4 4 4 4 4 3 3 4 4 4 4 6 9 11
4 7 8 9 8 6 6 7 5 2 2 3 4 5 4 5 5 4 4 4 7 8 7 7 7 5 5 5 5 4 4 3 4 4 4 4 5 5
4 5 7 7 5 5 5 4 3 3 3 4 5 5 4 4 4 3 3 3 3 5 5 7 7 7 5 6 6 6 5 4 3 4 4 4 4 5
4 3 3 4 4 4 4 4 3 3 3 3 4 5 5 4 4 3 3 3 3 4 5 3 4 5 7 5 5 6 6 5 5 4 4 4 5 5
2 2 4 4 4 4 5 5 4 4 4 4 4 4 4 5 5 4 3 3 4 5 5 4 3 2 3 4 7 6 5 5 5 4 4 5 5 5
1 3 3 4 4 4 4 4 5 5 5 4 5 4 4 4 4 4 4 4 4 5 5 4 3 3 4 5 4 6 5 4 4 4 4 5 5 5
2 3 4 4 4 4 5 5 5 5 5 4 5 5 4 4 4 5 4 5 5 5 5 4 4 4 5 5 5 3 6 5 4 5 4 4 4 4
4 4 4 4 4 4 5 5 5 5 6 5 5 5 4 4 5 5 5 6 5 5 6 6 5 6 4 3 4 4 3 5 5 4 4 3 3 3
4 4 4 4 4 4 5 5 5 5 6 5 5 5 5 4 5 6 6 6 5 5 6 6 5 3 2 4 5 6 5 3 3 5 5 4 3 3
4 5 4 4 4 4 5 5 6 5 5 5 6 5 5 5 5 5 6 6 6 6 6 5 4 3 3 3 4 5 6 5 3 2 3 3 5 6
Wind_Direction
249 244 243 250 237 235 233 230 246 282 289 280 279 275 275 272 271 268 264 269 276 275 271 266 262 259 256 257 257 248 240 234 228 225 221 222 225 221
246 245 251 251 250 241 233 235 231 246 270 270 270 279 279 279 277 271 269 274 274 274 275 272 265 258 253 249 247 241 237 233 228 226 223 221 223 223
268 254 262 257 257 256 243 241 236 231 260 280 275 281 276 275 282 276 269 265 268 270 275 274 270 265 259 250 243 234 231 229 227 226 226 221 217 214
280 276 276 272 265 263 256 258 251 233 243 273 286 280 272 270 271 272 273 267 266 268 266 267 267 267 263 256 247 236 229 226 224 222 220 215 208 207
275 271 276 275 278 276 267 264 261 252 237 253 275 275 278 273 275 276 272 271 272 264 258 259 262 264 262 256 248 237 226 218 213 210 210 210 206 204
289 279 275 268 267 271 272 269 265 264 253 253 268 279 279 279 262 276 288 287 284 277 270 264 259 261 255 248 243 237 227 216 211 208 206 207 208 204
306 297 285 280 270 264 266 269 267 264 263 259 268 279 283 280 269 261 272 289 285 270 278 272 262 260 255 245 239 234 229 222 217 212 210 208 209 209
302 306 303 296 296 290 278 267 252 250 257 258 264 267 271 268 263 258 263 278 283 259 258 275 251 257 256 246 239 233 229 225 222 218 217 216 214 213
289 300 309 309 309 298 293 288 272 255 239 237 253 261 263 260 255 258 251 250 257 259 247 270 258 259 256 245 233 232 231 229 226 222 219 218 217 215
283 281 289 301 303 299 299 300 294 283 260 242 245 256 259 255 243 247 255 265 269 251 223 250 257 260 270 258 240 233 231 228 226 224 221 217 216 216
292 284 278 287 297 297 296 296 300 299 282 256 253 260 261 255 242 232 235 238 266 259 207 224 246 257 261 256 245 233 232 231 229 225 222 218 215 213
311 307 289 285 295 296 282 279 287 291 302 307 297 285 269 258 237 219 220 229 251 264 215 208 230 232 262 246 240 232 230 232 231 228 223 219 211 208
304 307 303 304 301 297 283 264 263 274 290 290 294 296 291 275 252 230 219 219 232 250 234 205 227 219 233 264 259 236 227 231 223 226 224 220 210 202
279 289 293 300 301 299 292 277 275 278 277 285 290 292 292 288 279 262 242 236 238 248 252 223 236 228 231 251 262 252 235 230 227 230 226 215 216 214
275 284 292 297 303 302 295 294 292 280 278 283 285 285 281 281 285 286 274 254 253 251 246 233 234 237 232 243 251 252 259 249 225 226 225 222 219 208
302 307 308 304 301 294 304 306 295 277 269 275 282 283 286 285 282 280 274 274 279 279 254 233 229 226 236 242 244 253 251 249 239 225 226 231 226 218
319 324 332 332 331 327 323 315 309 306 295 290 287 292 295 293 289 287 278 271 265 283 291 279 241 233 237 243 245 247 251 253 248 240 227 238 238 226
322 318 317 314 311 311 312 313 312 311 305 300 295 292 295 297 298 295 279 270 274 278 279 281 278 262 249 242 229 247 253 254 255 238 227 236 250 242
309 302 302 303 303 303 303 303 305 307 306 302 298 295 293 294 295 296 295 289 284 284 284 280 266 252 266 277 257 216 234 252 253 248 236 231 245 250
310 301 301 302 302 303 303 302 303 308 310 307 302 299 296 294 295 295 295 294 291 292 294 287 266 251 254 272 278 263 220 232 246 253 253 242 245 253
315 306 301 299 301 303 304 305 306 306 309 311 310 307 305 302 299 297 295 294 291 292 292 290 284 270 263 263 267 269 263 230 229 242 249 244 248 245
312 309 308 308 310 310 312 313 314 314 316 316 315 314 314 312 306 304 302 300 297 294 293 294 301 298 260 254 269 278 284 285 251 238 247 245 245 243
317 317 317 317 318 319 319 321 322 320 320 319 316 317 318 317 314 312 309 305 305 304 304 306 311 306 286 273 277 285 288 290 294 291 283 262 237 246